Weather History for Bradford, PA

Change the Weather History Date:

Thursday, January 16, 2014

  Actual Average Record
Temperature  
Mean Temperature 22 °F 21 °F  
Max Temperature 26 °F 29 °F 48 °F (1990)
Min Temperature 18 °F 13 °F -19 °F (1984)
Degree Days  
Heating Degree Days 43 38  
Month to date heating degree days 643 608  
Since 1 July heating degree days 3579 3664  
Cooling Degree Days 0 0  
Month to date cooling degree days 0 0  
Year to date cooling degree days 0 0  
Moisture  
Dew Point 10 °F    
Average Humidity 59    
Maximum Humidity 68    
Minimum Humidity 50    
Precipitation  
Precipitation T in 0.11 in 0.76 in (1991)
Month to date precipitation 1.80 1.76  
Year to date precipitation 1.80 1.76  
Sea Level Pressure  
Sea Level Pressure 29.88 in    
Wind  
Wind Speed 6 mph (SSW)    
Max Wind Speed 15 mph    
Max Gust Speed 22 mph    
Visibility 10 miles    
Events Snow    
T = Trace of Precipitation, MM = Missing Value Source: NWS Daily Summary

Daily Weather History Graph

Daily Weather History Graph

Search for Another Location

Airport:

Trip Planner

Search our weather history database for the weather conditions in past years. The results will help you decide how hot, cold, wet, or windy it might be!

Date:

Astronomy

Jan. 16, 2014 Rise Set
Actual Time 7:39 AM EST 5:10 PM EST
Civil Twilight 7:08 AM EST 5:40 PM EST
Nautical Twilight 6:34 AM EST 6:14 PM EST
Astronomical Twilight 6:00 AM EST 6:48 PM EST
Moon 6:01 PM EST (1/16) 7:30 AM EST (1/16)
Length of Visible Light 10h 32m
Length of Day
9h 30m
Full, 100% of the Moon is Illuminated
Jan 16
Full
Jan 24
Last Quarter
Jan 30
New
Feb 6
First Quarter
Feb 14
Full

Hourly Weather History & Observations

Time (EST) Temp. Windchill Dew Point Humidity Pressure Visibility Wind Dir Wind Speed Gust Speed Precip Events Conditions
12:53 AM 21.9 °F 17.2 °F 9.0 °F 58% 29.93 in 10.0 mi WSW 3.5 mph - N/A   Overcast
1:53 AM 21.9 °F 15.7 °F 10.0 °F 60% 29.93 in 10.0 mi West 4.6 mph - N/A   Overcast
2:42 AM 21.0 °F 16.2 °F 9.0 °F 60% 29.88 in 9.0 mi West 3.5 mph - 0.00 in   Overcast
2:53 AM 21.0 °F 14.6 °F 9.0 °F 60% 29.95 in 10.0 mi West 4.6 mph - 0.00 in   Overcast
3:08 AM 21.0 °F 16.2 °F 9.0 °F 60% 29.88 in 10.0 mi Variable 3.5 mph - N/A   Overcast
3:53 AM 21.0 °F 16.2 °F 7.0 °F 55% 29.94 in 10.0 mi Variable 3.5 mph - 0.00 in   Overcast
4:53 AM 19.9 °F - 8.1 °F 60% 29.93 in 10.0 mi Calm Calm - N/A   Overcast
5:53 AM 19.9 °F 14.9 °F 9.0 °F 62% 29.91 in 10.0 mi SSW 3.5 mph - N/A   Scattered Clouds
6:53 AM 19.0 °F - 10.0 °F 68% 29.93 in 10.0 mi Calm Calm - N/A   Overcast
7:04 AM 19.0 °F 13.9 °F 10.0 °F 68% 29.85 in 10.0 mi SW 3.5 mph - N/A   Overcast
7:53 AM 19.0 °F 11.1 °F 10.9 °F 71% 29.93 in 10.0 mi South 5.8 mph - N/A   Overcast
8:53 AM 19.9 °F 11.1 °F 9.0 °F 62% 29.94 in 10.0 mi SW 6.9 mph - N/A   Overcast
9:10 AM 19.9 °F 12.1 °F 9.0 °F 62% 29.87 in 10.0 mi SW 5.8 mph 16.1 mph N/A   Scattered Clouds
9:40 AM 19.9 °F 6.7 °F 9.0 °F 62% 29.88 in 10.0 mi SW 13.8 mph 21.9 mph N/A   Mostly Cloudy
9:53 AM 19.9 °F 7.9 °F 9.0 °F 62% 29.96 in 10.0 mi SSW 11.5 mph 16.1 mph N/A   Mostly Cloudy
10:09 AM 19.9 °F 7.9 °F 8.1 °F 60% 29.87 in 10.0 mi SW 11.5 mph 21.9 mph N/A   Scattered Clouds
10:53 AM 21.0 °F 9.9 °F 9.0 °F 60% 29.94 in 10.0 mi South 10.4 mph - N/A   Clear
11:53 AM 21.9 °F 11.0 °F 9.0 °F 58% 29.90 in 10.0 mi SW 10.4 mph - N/A   Clear
12:53 PM 24.1 °F 14.4 °F 10.0 °F 55% 29.86 in 10.0 mi South 9.2 mph - N/A   Clear
1:53 PM 25.0 °F 18.1 °F 10.0 °F 53% 29.84 in 10.0 mi South 5.8 mph - N/A   Clear
2:53 PM 26.1 °F 20.5 °F 10.9 °F 53% 29.83 in 10.0 mi SSW 4.6 mph - N/A   Clear
3:53 PM 26.1 °F 19.4 °F 10.0 °F 51% 29.83 in 10.0 mi SSW 5.8 mph - N/A   Clear
4:53 PM 25.0 °F 19.3 °F 10.0 °F 53% 29.83 in 10.0 mi South 4.6 mph - N/A   Clear
5:53 PM 24.1 °F 15.2 °F 10.9 °F 57% 29.83 in 10.0 mi SSE 8.1 mph - N/A   Clear
6:53 PM 24.1 °F 17.0 °F 12.0 °F 60% 29.84 in 10.0 mi South 5.8 mph - N/A   Overcast
7:53 PM 24.1 °F 17.0 °F 12.0 °F 60% 29.85 in 10.0 mi South 5.8 mph - N/A   Overcast
8:53 PM 24.1 °F 17.0 °F 12.0 °F 60% 29.85 in 10.0 mi South 5.8 mph - N/A   Overcast
9:53 PM 24.1 °F 17.0 °F 12.9 °F 62% 29.85 in 10.0 mi South 5.8 mph - N/A   Overcast
10:53 PM 24.1 °F 15.2 °F 15.1 °F 69% 29.84 in 9.0 mi South 8.1 mph - 0.00 in   Overcast
11:53 PM 24.1 °F 16.0 °F 16.0 °F 71% 29.83 in 3.0 mi South 6.9 mph 17.3 mph 0.00 in Snow Light Snow